Flag for Poland Weather past 2 weeks in Legnica, Poland

Now
44 °F

Overcast.


Feels Like: 37 °F
Forecast: 35 / 44 °F
Wind: 12 mph from West

Location: Wroclaw Ii

Current Time: Apr 1, 2015 at 12:58:20 AM

Latest Report: Apr 1, 2015 at 12:00 AM


Visibility: 31 mi

Pressure: 29.41 "Hg

Humidity: 53%

Dew point: 28 °F

Location of LegnicaLocation

Historic Weather in Legnica — Graph

°F

Legnica temperature yesterday

Maximum temperature yesterday: 54 °F (at 5:00 PM)
Minimum temperature yesterday: 36 °F (at 4:00 AM)
Average temperature yesterday: 43 °F

Past Weeks' High & Low Weather Summary

 TemperatureHumidityPressure
High65 °F (Mar 25, 4:00 PM)97% (Mar 29, 12:00 AM)30.58 "Hg (Mar 29, 12:00 AM)
Low26 °F (Mar 23, 2:00 AM)26% (Mar 18, 1:00 PM)29.18 "Hg (Mar 30, 3:00 AM)
Average44 °F65%30.00 "Hg
* Reported Mar 16 11:00 PM — Midnight between Mar 31 and Apr 1, Legnica, Weather by CustomWeather, © 2015

Note: Actual official high and low records may vary slightly from our data, if they occured in-between our weather recording intervals... More about our weather records

Advertising

Legnica weather history for previous 24 hours

 ConditionsComfort  
Time TempWeatherWind HumidityBarometerVisibility
12:00 AM
Wed, Apr 1
44 °FOvercast.12 mph53%29.41 "Hg31 mi
11:00 PM
Tue, Mar 31
45 °FPassing clouds.16 mph54%29.38 "Hg31 mi
10:00 PM46 °FPassing clouds.13 mph59%29.35 "Hg31 mi
9:00 PM46 °FOvercast.13 mph66%29.32 "Hg31 mi
8:00 PM47 °FPassing clouds.30 mph63%29.29 "Hg25 mi
7:00 PMN/APassing clouds.28 mphN/AN/A11 mi
6:00 PM50 °FPartly sunny.9 mph70%29.21 "Hg19 mi
5:00 PM54 °FSprinkles. Partly sunny.12 mph57%29.18 "Hg31 mi
4:00 PM54 °FScattered clouds.9 mph63%29.18 "Hg31 mi
3:00 PMN/APassing clouds.25 mphN/AN/A7 mi
2:00 PM46 °FOvercast.10 mph84%29.21 "Hg19 mi
1:00 PM46 °FSprinkles. Overcast.6 mph81%29.21 "Hg12 mi
12:00 PM41 °FSprinkles. Overcast.10 mph85%29.21 "Hg12 mi
11:00 AM38 °FLight rain. Low clouds.14 mph87%29.29 "Hg7 mi
10:00 AM39 °FLight rain. Low clouds.12 mph79%29.35 "Hg5 mi
9:00 AM38 °FLight rain. Overcast.12 mph77%29.44 "Hg9 mi
8:00 AM39 °FOvercast.6 mph72%29.50 "Hg25 mi
7:00 AM38 °FOvercast.6 mph75%29.56 "Hg25 mi
6:00 AM38 °FOvercast.3 mph70%29.63 "Hg31 mi
5:00 AM38 °FOvercast.5 mph73%29.68 "Hg31 mi
4:00 AM36 °FPassing clouds.5 mph77%29.71 "Hg31 mi
3:00 AM38 °FClear.6 mph73%29.72 "Hg31 mi
2:00 AM39 °FPassing clouds.7 mph69%29.72 "Hg31 mi
1:00 AMN/APassing clouds.33 mphN/AN/A1 mi
12:00 AM41 °FOvercast.7 mph69%29.69 "Hg31 mi
Weather by CustomWeather, © 2015

See weather overviewHow to use our weather pages